Location: Mercogliano
(40.9167°N, 14.7333°E)
Time: 16:34:45
(UTC+00:00)

X-37B - Visible Passes

Search period start: 25 November 2020 00:00
Search period end: 05 December 2020 00:00
Orbit: 384 x 389 km, 45.0° (Epoch: 12 November)

Date Brightness Start Highest point End Pass type
(mag) Time Alt. Az. Time Alt. Az. Time Alt. Az.
25 Nov 2.8 16:53:28 10° S 16:55:09 14° SE 16:55:21 14° SE visible
26 Nov 2.0 17:29:49 10° SW 17:31:54 32° SSW 17:31:54 32° SSW visible
27 Nov 2.1 16:31:45 10° SSW 16:34:24 24° SE 16:36:07 16° E visible
27 Nov 3.7 18:07:41 10° WSW 18:08:24 15° W 18:08:24 15° W visible
28 Nov 0.4 17:09:05 10° WSW 17:12:15 78° SSE 17:12:32 69° E visible
29 Nov 1.3 16:10:41 10° SW 16:13:44 44° SSE 16:16:38 11° ENE visible
29 Nov 2.7 17:47:16 10° W 17:48:55 26° WNW 17:48:55 26° WNW visible
30 Nov 0.7 16:48:33 10° WSW 16:51:42 66° NNW 16:52:59 32° NE visible
01 Dec 1.9 17:26:54 10° WNW 17:29:18 34° NW 17:29:18 34° NW visible
02 Dec 1.1 16:28:08 10° W 16:31:14 47° NNW 16:33:20 18° ENE visible
02 Dec 3.8 18:05:11 10° WNW 18:05:36 13° WNW 18:05:36 13° WNW visible
03 Dec 1.4 17:06:30 10° WNW 17:09:29 36° N 17:09:39 36° N visible
04 Dec 1.4 16:07:45 10° WNW 16:10:47 39° N 16:13:43 10° ENE visible
04 Dec 2.9 17:44:40 10° WNW 17:46:00 22° NW 17:46:00 22° NW visible
